Regional Weather Roundup
Issued by NWS Huntsville, AL

Home | Current Version | Previous Version | Text Only | Print | Product List | Glossary On
Versions: 1 2 3 4 5 6 7 8 9 10 11 12 13 14 15 16 17 18 19 20 21 22 23 24 25 26 27 28 29 30 31 32 33 34 35 36 37 38 39 40 41 42 43 44 45 46 47 48 49 50
000
ASUS44 KHUN 230724
RWRHUN

WEATHER ROUNDUP FOR THE TENNESSEE VALLEY
NATIONAL WEATHER SERVICE HUNTSVILLE AL
200 AM CDT WED APR 23 2014

ALZ001>004-230800-
NORTHWEST ALABAMA

CITY           SKY/WX    TMP DP  RH WIND       PRES   REMARKS
COURTLAND HCN    N/A     59 N/A N/A CALM        N/A
RUSSELLVILLE     N/A     50 N/A N/A MISG        N/A
SHOALS AIRPORT CLEAR     60  45  57 N3        29.96R
SHOALS TVA RES   N/A     59 N/A N/A MISG        N/A
$$

ALZ005>007-016-230800-
NORTH CENTRAL ALABAMA

CITY           SKY/WX    TMP DP  RH WIND       PRES   REMARKS
CULLMAN AG STN   N/A     59 N/A N/A N5          N/A
DECATUR AP     CLEAR     59  45  59 N6        29.94R
HUNTSVILLE AP  CLEAR     59  46  62 N8        29.93R
HUN NWS/UAH      N/A     59  40  49 N5          N/A
MERIDIANVILLE  CLEAR     54  39  58 CALM      29.93F
VINEMONT AP    FAIR      54  50  87 CALM      29.95S
$$

ALZ008>010-230800-
NORTHEAST ALABAMA

CITY           SKY/WX    TMP DP  RH WIND       PRES   REMARKS
ALBERTVILLE    PTCLDY    59  55  88 N8        29.91R
CROSSVILLE       N/A     52 N/A N/A CALM        N/A
FORT PAYNE     FOG       52  50  93 CALM      29.91R VSB 1/2
SCOTTSBORO AP  MOCLDY    54  50  87 CALM      29.92S
SCOTTSBORO HCN   N/A     52 N/A N/A MISG        N/A
VALLEY HEAD      N/A     52 N/A N/A MISG        N/A
$$

TNZ076-096-097-230800-
SOUTHEASTERN MIDDLE TENNESSEE

CITY           SKY/WX    TMP DP  RH WIND       PRES   REMARKS
FAYETTEVILLE   FAIR      54  40  59 N12       29.94S
TULLAHOMA      CLEAR     52  39  62 N5        29.95S
WINCHESTER     CLEAR     48  43  81 CALM      29.95R
$$

...SURROUNDING SITES...

CITY           SKY/WX    TMP DP  RH WIND       PRES   REMARKS
ATLANTA        CLEAR     60  58  92 NW9       29.86F
ANNISTON       CLOUDY    62  60  93 SW6       29.89F
BIRMINGHAM     CLEAR     59  57  93 CALM      29.92S FOG
CHATTANOOGA    CLEAR     58  45  62 N6        29.91S
CORINTH        FAIR      50  45  81 NW5       29.96S
DALTON         CLEAR     52  52 100 CALM      29.89S
GADSDEN        CLEAR     55  52  88 CALM      29.89S
GOLDEN TRNGL   PTCLDY    59  52  77 NW5       29.96S
HALEYVILLE     FAIR      54  50  86 N5        29.96S
JACKSON TN     CLEAR     51  38  60 CALM      29.97S
LEWISBURG      FAIR      45  43  93 CALM      29.95F
MEMPHIS        CLEAR     59  41  51 NE6       29.97R
MURFREESBORO   FAIR      50  43  77 CALM      29.95S
NASHVILLE      CLEAR     55  39  54 N5        29.96S
OXFORD MS      FAIR      48  45  87 E3        29.97S
ROME           CLEAR     55  54  96 N5        29.88S
TUPELO         CLEAR     56  45  66 N7        29.94S
TUSCALOOSA     FOG       58  58 100 CALM      29.91S VSB 1/4
$$

...GULF COAST WEATHER...

CITY           SKY/WX    TMP DP  RH WIND       PRES   REMARKS
GULFPORT       CLEAR     65  61  87 CALM      29.91S FOG
PASCAGOULA     CLEAR     61  61 100 NW3       29.91S FOG
MOBILE         CLEAR     62  62 100 N3        29.91F
GULF SHORES    CLOUDY    66  65  97 N3        29.90S FOG
PENSACOLA      PTCLDY    65  64  97 NW5       29.89S FOG
DESTIN         CLEAR     68  64  87 CALM      29.88F
PANAMA CITY    CLOUDY    67  66  97 W6        29.89F
APPALACHICOLA  MOCLDY    66  62  87 W7        29.89F
$$




USA.gov is the U.S. government's official web portal to all federal, state and local government web resources and services.